Regional Weather Roundup
Issued by NWS Albany, NY

Home | Current Version | Previous Version | Text Only | Print | Product List | Glossary On
Versions: 1 2 3 4 5 6 7 8 9 10 11 12 13 14 15 16 17 18 19 20 21 22 23 24 25 26 27 28 29 30 31 32 33 34 35 36 37 38 39 40 41 42 43 44 45 46 47 48 49 50
000
ASUS41 KALY 242110
RWRALY

NEW YORK STATE HOURLY WEATHER ROUNDUP
NATIONAL WEATHER SERVICE ALBANY NY
500 PM EDT FRI MAR 24 2017

NOTE: "FAIR" INDICATES FEW OR NO CLOUDS BELOW 12,000 FEET WITH NO
SIGNIFICANT WEATHER AND/OR NO OBSTRUCTIONS TO VISIBILITY.

NYZ032-033-038>043-046>054-057>066-NYZ062>081-082-084-242200-
EAST


CITY           SKY/WX    TMP DP  RH WIND       PRES   REMARKS
ALBANY         CLOUDY    40  30  67 S15G28    30.06F WCI  32
GLENS FALLS    CLOUDY    33  29  85 E5        30.04F WCI  29
POUGHKEEPSIE   CLOUDY    43  32  65 W8        30.14F
NEWBURGH       PTSUNNY   43  36  75 W7        30.15F
MONTGOMERY     CLOUDY    45  33  63 SW10      30.13F
WHITE PLAINS   CLOUDY    50  29  44 SW10G17   30.13F
ISLIP          PTSUNNY   46  32  58 SW18G25   30.16F
NEW YORK CITY  CLOUDY    55  31  39 SW14G22   30.14F
CENTRAL PARK   CLOUDY    54  31  41 VRB3      30.16F
$$

NYZ005>009-017-018-044>046-055-056-242200-
CENTRAL


CITY           SKY/WX    TMP DP  RH WIND       PRES   REMARKS
FULTON         CLOUDY    43  36  76 SE5       29.95F
SYRACUSE       CLOUDY    46  38  73 S9        29.95F
ROME           CLOUDY    40  35  83 E6        30.00F
ELMIRA         MOSUNNY   60  39  45 SW13      29.97F
BINGHAMTON     CLOUDY    42  35  76 S8        30.02F
MONTICELLO     CLOUDY    36  34  93 NE3       30.12S
$$

NYZ026>034-041>043-087-242200-
NORTH


CITY           SKY/WX    TMP DP  RH WIND       PRES   REMARKS
WATERTOWN      CLOUDY    43  38  82 W7        29.95R
FORT DRUM      NOT AVBL
MASSENA        LGT RAIN  33  32  96 NE6       30.00R FOG     WCI  28
SARANAC LAKE   MIX PCPN  33  33 100 CALM      29.89F
PLATTSBURGH    MIX PCPN  32  30  92 S7        29.99S FOG     WCI  26
$$

NYZ001>004-010>016-019>021-085-242200-
WEST


CITY           SKY/WX    TMP DP  RH WIND       PRES   REMARKS
NIAGARA FALLS  MOSUNNY   62  48  60 W17G29    29.92F
BUFFALO        CLOUDY    61  48  62 W22G33    29.93F
DUNKIRK        PTSUNNY   59  46  62 W10G24    29.96F
JAMESTOWN      SUNNY     64  46  52 SW17G24   29.97F
WELLSVILLE     SUNNY     65  45  48 SW15G23   29.97F
ROCHESTER      CLOUDY    58  46  64 W12       29.93F
PENN YAN       CLOUDY    55  41  59 E3        29.95F
$$

             KEY
       WCI = WIND CHILL INDEX
       VSB = VISIBILITY
       HX  = HEAT INDEX
$$



USA.gov is the U.S. government's official web portal to all federal, state and local government web resources and services.